Retour au catalogue

IUS DEB

ActifHEO
NORAD 43367·DEBRIS·🇺🇸 United States

Lancé Jul 23, 1999 depuis Cape Canaveral Space Force Station

Loading…

Prochains Passages (prochaines 24 heures)

TLE

FraisSource: Space-Track

Époque: Sep 8, 2026, 23:49 UTC

1 43367U 99040Q   26251.99296919  .00000298  00000-0  18700-2 0  9992
2 43367  28.0981 157.4075 3768796 184.8998 170.0579  7.01239055127095

Suivez IUS DEB en temps réel avec AllMySat

Download on the App Store